| time (UTC) | temp F | wind direction | speed MPH | gust MPH | rain 1hr in | rain 24hr in | rain mn in | humidity % | barometer mb |
| 20260902031537 | 88 | 94 | 0.0 | 0.0 | 0.00 | 0.00 | 0.00 | 50 | 1012.3 |
| 20260902030037 | 89 | 94 | 0.0 | 1.0 | 0.00 | 0.00 | 0.00 | 48 | 1012.2 |
| 20260902024537 | 89 | 98 | 0.0 | 1.0 | 0.00 | 0.00 | 0.00 | 47 | 1012.1 |
| 20260902023036 | 90 | 96 | 0.0 | 1.0 | 0.00 | 0.00 | 0.00 | 46 | 1011.8 |
| 20260902021544 | 90 | 96 | 0.0 | 2.0 | 0.00 | 0.00 | 0.00 | 45 | 1011.5 |
| 20260902020035 | 90 | 98 | 0.0 | 1.0 | 0.00 | 0.00 | 0.00 | 46 | 1011.3 |
| 20260902014539 | 91 | 94 | 0.0 | 0.0 | 0.00 | 0.00 | 0.00 | 44 | 1011.2 |
| 20260902013034 | 92 | 94 | 0.0 | 0.0 | 0.00 | 0.00 | 0.00 | 42 | 1011.1 |
| 20260902011538 | 93 | 96 | 0.0 | 1.0 | 0.00 | 0.00 | 0.00 | 40 | 1011.0 |
| 20260902010053 | 94 | 101 | 0.0 | 2.0 | 0.00 | 0.00 | 0.00 | 38 | 1011.0 |
| 20260902004540 | 95 | 99 | 0.0 | 1.0 | 0.00 | 0.00 | 0.00 | 38 | 1011.0 |
| 20260902003032 | 96 | 98 | 0.0 | 2.0 | 0.00 | 0.00 | 0.00 | 36 | 1011.0 |
| 20260902001531 | 97 | 130 | 0.0 | 1.0 | 0.00 | 0.00 | 0.00 | 35 | 1011.2 |
| 20260902000045 | 98 | 99 | 0.0 | 2.0 | 0.00 | 0.00 | 0.00 | 34 | 1011.2 |
| 20260901234554 | 99 | 95 | 0.0 | 7.0 | 0.00 | 0.00 | 0.00 | 32 | 1011.3 |
| 20260901233028 | 101 | 101 | 0.0 | 3.0 | 0.00 | 0.00 | 0.00 | 31 | 1011.4 |
| 20260901231543 | 103 | 136 | 0.0 | 1.0 | 0.00 | 0.00 | 0.00 | 30 | 1011.5 |
| 20260901230026 | 102 | 134 | 0.0 | 2.0 | 0.00 | 0.00 | 0.00 | 31 | 1011.6 |
| 20260901224530 | 102 | 130 | 0.0 | 3.0 | 0.00 | 0.00 | 0.00 | 30 | 1011.5 |
| 20260901223033 | 101 | 99 | 0.0 | 6.0 | 0.00 | 0.00 | 0.00 | 32 | 1011.5 |
| 20260901221528 | 101 | 128 | 0.0 | 9.0 | 0.00 | 0.00 | 0.00 | 31 | 1011.5 |
| 20260901220023 | 101 | 137 | 0.0 | 5.0 | 0.00 | 0.00 | 0.00 | 30 | 1011.6 |
| 20260901214519 | 100 | 96 | 3.0 | 10.0 | 0.00 | 0.00 | 0.00 | 32 | 1011.6 |
| 20260901213020 | 101 | 94 | 1.0 | 5.0 | 0.00 | 0.00 | 0.00 | 32 | 1011.7 |
| 20260901211518 | 102 | 105 | 0.0 | 3.0 | 0.00 | 0.00 | 0.00 | 30 | 1011.8 |
| 20260901210017 | 102 | 135 | 0.0 | 7.0 | 0.00 | 0.00 | 0.00 | 30 | 1012.0 |
| 20260901204516 | 102 | 127 | 0.0 | 6.0 | 0.00 | 0.00 | 0.00 | 29 | 1012.2 |
| 20260901203020 | 101 | 129 | 0.0 | 6.0 | 0.00 | 0.00 | 0.00 | 32 | 1012.4 |
| 20260901201508 | 101 | 110 | 0.0 | 5.0 | 0.00 | 0.00 | 0.00 | 32 | 1012.6 |
| 20260901200018 | 99 | 99 | 4.0 | 8.0 | 0.00 | 0.00 | 0.00 | 33 | 1012.8 |
| 20260901194504 | 101 | 102 | 1.0 | 7.0 | 0.00 | 0.00 | 0.00 | 33 | 1013.0 |
| 20260901193002 | 100 | 103 | 1.0 | 10.0 | 0.00 | 0.00 | 0.00 | 33 | 1013.1 |
| 20260901191501 | 99 | 145 | 0.0 | 1.0 | 0.00 | 0.00 | 0.00 | 37 | 1013.3 |
| 20260901190001 | 99 | 110 | 2.0 | 5.0 | 0.00 | 0.00 | 0.00 | 37 | 1013.5 |
| 20260901184600 | 100 | 93 | 1.0 | 5.0 | 0.00 | 0.00 | 0.00 | 36 | 1013.7 |
| 20260901183102 | 101 | 136 | 0.0 | 1.0 | 0.00 | 0.00 | 0.00 | 35 | 1014.0 |
| 20260901181559 | 101 | 136 | 0.0 | 5.0 | 0.00 | 0.00 | 0.00 | 36 | 1014.2 |
| 20260901180055 | 100 | 179 | 1.0 | 5.0 | 0.00 | 0.00 | 0.00 | 36 | 1014.4 |
| 20260901174554 | 100 | 114 | 2.0 | 6.0 | 0.00 | 0.00 | 0.00 | 35 | 1014.6 |
| 20260901173105 | 100 | 143 | 0.0 | 3.0 | 0.00 | 0.00 | 0.00 | 39 | 1014.8 |
| 20260901171548 | 99 | 138 | 0.0 | 4.0 | 0.00 | 0.00 | 0.00 | 40 | 1015.0 |
| 20260901170048 | 99 | 92 | 0.0 | 4.0 | 0.00 | 0.00 | 0.00 | 41 | 1015.1 |
| 20260901164554 | 98 | 134 | 0.0 | 5.0 | 0.00 | 0.00 | 0.00 | 42 | 1015.3 |
| 20260901163042 | 97 | 139 | 1.0 | 4.0 | 0.00 | 0.00 | 0.00 | 44 | 1015.5 |
| 20260901161537 | 95 | 109 | 0.0 | 2.0 | 0.00 | 0.00 | 0.00 | 49 | 1015.6 |
| 20260901160033 | 93 | 127 | 0.0 | 2.0 | 0.00 | 0.00 | 0.00 | 51 | 1015.6 |
| 20260901154528 | 91 | 174 | 0.0 | 4.0 | 0.00 | 0.00 | 0.00 | 53 | 1015.6 |
| 20260901153035 | 89 | 121 | 0.0 | 2.0 | 0.00 | 0.00 | 0.00 | 56 | 1015.7 |
| 20260901151522 | 88 | 102 | 0.0 | 5.0 | 0.00 | 0.00 | 0.00 | 57 | 1015.7 |
| 20260901150019 | 87 | 179 | 0.0 | 3.0 | 0.00 | 0.00 | 0.00 | 60 | 1015.7 |
| 20260901144526 | 86 | 96 | 0.0 | 4.0 | 0.00 | 0.00 | 0.00 | 61 | 1015.8 |
| 20260901143012 | 85 | 127 | 1.0 | 6.0 | 0.00 | 0.00 | 0.00 | 62 | 1015.9 |
| 20260901141511 | 84 | 94 | 0.0 | 3.0 | 0.00 | 0.00 | 0.00 | 64 | 1015.9 |
| 20260901140007 | 83 | 96 | 0.0 | 5.0 | 0.00 | 0.00 | 0.00 | 65 | 1015.9 |
| 20260901134503 | 82 | 99 | 0.0 | 2.0 | 0.00 | 0.00 | 0.00 | 66 | 1015.8 |
| 20260901133102 | 80 | 124 | 0.0 | 1.0 | 0.00 | 0.00 | 0.00 | 68 | 1015.9 |
| 20260901131558 | 80 | 95 | 1.0 | 3.0 | 0.00 | 0.00 | 0.00 | 69 | 1016.0 |
| 20260901130054 | 79 | 94 | 0.0 | 2.0 | 0.00 | 0.00 | 0.00 | 69 | 1015.6 |
| 20260901124556 | 78 | 100 | 0.0 | 0.0 | 0.00 | 0.00 | 0.00 | 70 | 1015.5 |
| 20260901123050 | 78 | 96 | 0.0 | 0.0 | 0.00 | 0.00 | 0.00 | 71 | 1015.4 |
| 20260901121558 | 78 | 96 | 0.0 | 2.0 | 0.00 | 0.00 | 0.00 | 70 | 1015.2 |
| 20260901120046 | 77 | 94 | 0.0 | 3.0 | 0.00 | 0.00 | 0.00 | 73 | 1015.0 |
| 20260901114554 | 75 | 115 | 0.0 | 0.0 | 0.00 | 0.00 | 0.00 | 76 | 1015.0 |
| 20260901113043 | 75 | 115 | 0.0 | 0.0 | 0.00 | 0.00 | 0.00 | 75 | 1014.9 |
| 20260901111546 | 76 | 115 | 0.0 | 0.0 | 0.00 | 0.00 | 0.00 | 74 | 1014.9 |
| 20260901110044 | 76 | 115 | 0.0 | 0.0 | 0.00 | 0.00 | 0.00 | 73 | 1014.8 |
| 20260901104535 | 76 | 115 | 0.0 | 0.0 | 0.00 | 0.00 | 0.00 | 72 | 1014.8 |
| 20260901103032 | 77 | 115 | 0.0 | 0.0 | 0.00 | 0.00 | 0.00 | 70 | 1014.7 |
| 20260901101528 | 77 | 115 | 0.0 | 0.0 | 0.00 | 0.00 | 0.00 | 70 | 1014.5 |
| 20260901100026 | 77 | 115 | 0.0 | 0.0 | 0.00 | 0.00 | 0.00 | 68 | 1014.4 |
| 20260901094527 | 77 | 115 | 0.0 | 0.0 | 0.00 | 0.00 | 0.00 | 69 | 1014.4 |
| 20260901093023 | 77 | 110 | 0.0 | 1.0 | 0.00 | 0.00 | 0.00 | 71 | 1014.4 |
| 20260901091529 | 77 | 98 | 0.0 | 0.0 | 0.00 | 0.00 | 0.00 | 71 | 1014.4 |
| 20260901090018 | 78 | 98 | 0.0 | 0.0 | 0.00 | 0.00 | 0.00 | 71 | 1014.3 |
| 20260901084517 | 78 | 98 | 0.0 | 0.0 | 0.00 | 0.00 | 0.00 | 70 | 1014.2 |
| 20260901083016 | 78 | 98 | 0.0 | 0.0 | 0.00 | 0.00 | 0.00 | 70 | 1014.1 |
| 20260901081515 | 79 | 98 | 0.0 | 0.0 | 0.00 | 0.00 | 0.00 | 71 | 1014.1 |
| 20260901080016 | 79 | 98 | 0.0 | 0.0 | 0.00 | 0.00 | 0.00 | 71 | 1014.1 |
| 20260901074514 | 79 | 98 | 0.0 | 0.0 | 0.00 | 0.00 | 0.00 | 71 | 1014.0 |
| 20260901073022 | 79 | 98 | 0.0 | 0.0 | 0.00 | 0.00 | 0.00 | 70 | 1014.0 |
| 20260901071514 | 79 | 98 | 0.0 | 0.0 | 0.00 | 0.00 | 0.00 | 71 | 1014.0 |
| 20260901070023 | 79 | 98 | 0.0 | 0.0 | 0.00 | 0.00 | 0.00 | 71 | 1013.9 |
| 20260901064513 | 79 | 98 | 0.0 | 0.0 | 0.00 | 0.00 | 0.00 | 70 | 1014.0 |
| 20260901063010 | 78 | 98 | 0.0 | 0.0 | 0.00 | 0.00 | 0.00 | 70 | 1014.0 |
| 20260901061510 | 78 | 98 | 0.0 | 0.0 | 0.00 | 0.00 | 0.00 | 71 | 1014.0 |
| 20260901060008 | 78 | 98 | 0.0 | 0.0 | 0.00 | 0.00 | 0.00 | 71 | 1013.9 |
| 20260901054506 | 78 | 98 | 0.0 | 0.0 | 0.00 | 0.00 | 0.00 | 70 | 1013.7 |
| 20260901053002 | 78 | 98 | 0.0 | 0.0 | 0.00 | 0.00 | 0.00 | 70 | 1013.5 |
| 20260901051603 | 79 | 98 | 0.0 | 0.0 | 0.00 | 0.00 | 0.00 | 69 | 1013.4 |
| 20260901050057 | 79 | 98 | 0.0 | 0.0 | 0.00 | 0.00 | 0.00 | 67 | 1013.3 |
| 20260901044556 | 80 | 98 | 0.0 | 0.0 | 0.00 | 0.00 | 0.00 | 66 | 1013.2 |
| 20260901043119 | 81 | 98 | 0.0 | 0.0 | 0.00 | 0.00 | 0.00 | 63 | 1013.1 |
| 20260901041607 | 81 | 98 | 0.0 | 0.0 | 0.00 | 0.00 | 0.00 | 61 | 1013.1 |
| 20260901034604 | 83 | 98 | 0.0 | 0.0 | 0.00 | 0.00 | 0.00 | 57 | 1013.0 |
| 20260901033104 | 82 | 98 | 0.0 | 0.0 | 0.00 | 0.00 | 0.00 | 57 | 1013.0 |